< < Back
Terminal Aerodrome Forecast


Current Version              Previous Versions:   1  2  3  4  5  6  7  8  9  

Terminal Aerodrome Forecast

251
FTUS42 KILM 251720
TAFILM
TAF
KILM 251720Z 2518/2618 20008KT P6SM SCT060
     FM260000 VRB03KT P6SM SKC
     FM261200 24006KT P6SM SKC=

Latest METAR

084
SAUS70 KWBC 262200 RRM
MTRILM
METAR KILM 262153Z AUTO 18011KT 10SM CLR 27/17 A3013 RMK AO2 SLP201
T02720172


USA.gov is the U.S. government's official web portal to all federal, state and local government web resources and services.